This demonstration page uses our WeatherBlox Daily Observations layout. Learn more.

41.55636, -103.73856

Hourly Observations for December 23, 2015

Temp ( °F °C ) Dew Point ( °F °C ) Humidity (%) Winds ( mph kmh ) Pressure ( in mb ) Visibility ( mi km ) Precip ( " mm )
12:53 am 00:53 Clear 19 -7 14 -10 79 79 NNW 6 9 29.62 1003 10 16.09344 0 0
1:53 am 01:53 Clear 18 -8 10 -12 73 73 NNE 6 9 29.62 1003 10 16.09344 0 0
2:53 am 02:53 Clear 16 -9 10 -12 79 79 Calm 29.65 1004 10 16.09344 0 0
3:53 am 03:53 Clear 16 -9 10 -12 79 79 NNW 9 15 29.65 1004 10 16.09344 0 0
4:53 am 04:53 Clear 14 -10 10 -12 85 85 W 8 13 29.65 1004 10 16.09344 0 0
5:53 am 05:53 Clear 14 -10 10 -12 85 85 NNW 7 11 29.68 1005 10 16.09344 0 0
6:53 am 06:53 Clear 16 -9 10 -12 79 79 NNW 7 11 29.68 1005 10 16.09344 0 0
7:53 am 07:53 Sunny 14 -10 9 -13 79 79 N 8 13 29.74 1007 10 16.09344 0 0
8:53 am 08:53 Sunny 19 -7 12 -11 73 73 NW 7 11 29.68 1005 10 16.09344 0 0
9:53 am 09:53 Sunny 27 -3 16 -9 64 64 WNW 9 15 29.65 1004 10 16.09344 0 0
10:53 am 10:53 Sunny 28 -2 18 -8 64 64 NW 8 13 29.59 1002 10 16.09344 0 0
11:53 am 11:53 Sunny 30 -1 18 -8 59 59 W 7 11 29.53 1000 10 16.09344 0 0
12:53 pm 12:53 Sunny 34 1 18 -8 51 51 WNW 9 15 29.5 999 10 16.09344 0 0
1:53 pm 13:53 Sunny 36 2 18 -8 48 48 NW 6 9 29.5 999 10 16.09344 0 0
2:53 pm 14:53 Sunny 34 1 18 -8 51 51 E 3 6 29.47 998 10 16.09344 0 0
3:53 pm 15:53 Sunny 30 -1 19 -7 64 64 S 6 9 29.59 1002 10 16.09344 0 0
4:53 pm 16:53 Mostly Clear 27 -3 19 -7 74 74 NE 6 9 29.62 1003 10 16.09344 0 0
5:53 pm 17:53 Cloudy 28 -2 18 -8 64 64 Calm 29.62 1003 10 16.09344 0 0
6:53 pm 18:53 Cloudy 28 -2 21 -6 74 74 SSW 8 13 29.62 1003 10 16.09344 0 0
7:53 pm 19:53 Cloudy 27 -3 23 -5 86 86 SSE 6 9 29.65 1004 10 16.09344 0.001 0.001
8:53 pm 20:53 Clear 28 -2 19 -7 69 69 SW 8 13 29.62 1003 10 16.09344 0 0
9:53 pm 21:53 Clear 28 -2 12 -11 51 51 WSW 12 19 29.62 1003 10 16.09344 0 0
10:53 pm 22:53 Mostly Clear 28 -2 12 -11 51 51 W 18 30 29.62 1003 10 16.09344 0 0
11:53 pm 23:53 Clear 27 -3 14 -10 59 59 W 18 30 29.65 1004 10 16.09344 0 0

Powered by AerisWeather